Weather History for La Grande, OR

Change the Weather History Date:

Thursday, August 29, 2013

  Actual Average Record
Temperature  
Mean Temperature 69 °F -  
Max Temperature 87 °F 79 °F 96 °F (1967)
Min Temperature 51 °F 46 °F 39 °F (1969)
Cooling Degree Days 4    
Growing Degree Days 19 (Base 50)    
Moisture  
Dew Point 42 °F    
Average Humidity 37    
Maximum Humidity 54    
Minimum Humidity 21    
Precipitation  
Precipitation 0.00 in - - ()
Sea Level Pressure  
Sea Level Pressure 29.98 in    
Wind  
Wind Speed 3 mph (NNW)    
Max Wind Speed 16 mph    
Max Gust Speed 16 mph    
Visibility 10 miles    
Events      
Averages and records for this station are not official NWS values.
T = Trace of Precipitation, MM = Missing Value Source: NWS Daily Summary

Daily Weather History Graph

Daily Weather History Graph

Search for Another Location

Airport:

Trip Planner

Search our weather history database for the weather conditions in past years. The results will help you decide how hot, cold, wet, or windy it might be!

Date:

Astronomy

Aug. 29, 2013 Rise Set
Actual Time 6:10 AM PDT 7:34 PM PDT
Civil Twilight 5:39 AM PDT 8:04 PM PDT
Nautical Twilight 5:02 AM PDT 8:41 PM PDT
Astronomical Twilight 4:22 AM PDT 9:21 PM PDT
Moon No Moon Rise 3:15 PM PDT (8/29)
Length of Visible Light 14h 25m
Length of Day
13h 23m
Last Quarter, 37% of the Moon is Illuminated
Aug 29
Last Quarter
Sep 5
New
Sep 12
First Quarter
Sep 19
Full
Sep 26
Last Quarter

Hourly Weather History & Observations

Time (PDT) Temp. Dew Point Humidity Pressure Visibility Wind Dir Wind Speed Gust Speed Precip Events Conditions
12:15 AM 69.8 °F 39.2 °F 33% 29.91 in 10.0 mi Calm Calm - N/A   Clear
12:35 AM 66.2 °F 39.2 °F 37% 29.92 in 10.0 mi Calm Calm - N/A   Clear
12:55 AM 64.4 °F 37.4 °F 37% 29.92 in 10.0 mi WSW 3.5 mph - N/A   Clear
1:15 AM 62.6 °F 39.2 °F 42% 29.92 in 10.0 mi NW 5.8 mph - N/A   Clear
1:35 AM 62.6 °F 39.2 °F 42% 29.92 in 10.0 mi Calm Calm - N/A   Clear
1:55 AM 60.8 °F 37.4 °F 42% 29.92 in 10.0 mi West 3.5 mph - N/A   Clear
2:15 AM 60.8 °F 37.4 °F 42% 29.92 in 10.0 mi WSW 3.5 mph - N/A   Clear
2:35 AM 64.4 °F 39.2 °F 40% 29.92 in 10.0 mi Calm Calm - N/A   Clear
2:55 AM 62.6 °F 39.2 °F 42% 29.92 in 10.0 mi West 3.5 mph - N/A   Clear
3:15 AM 60.8 °F 39.2 °F 45% 29.93 in 10.0 mi Calm Calm - N/A   Clear
3:35 AM 57.2 °F 37.4 °F 48% 29.93 in 10.0 mi Calm Calm - N/A   Clear
3:55 AM 53.6 °F 35.6 °F 51% 29.93 in 10.0 mi SE 3.5 mph - N/A   Clear
4:15 AM 55.4 °F 35.6 °F 47% 29.93 in 10.0 mi SE 3.5 mph - N/A   Clear
4:35 AM 55.4 °F 35.6 °F 47% 29.93 in 10.0 mi Calm Calm - N/A   Clear
4:55 AM 55.4 °F 37.4 °F 51% 29.93 in 10.0 mi Calm Calm - N/A   Clear
5:15 AM 53.6 °F 35.6 °F 51% 29.94 in 10.0 mi North 3.5 mph - N/A   Clear
5:35 AM 53.6 °F 37.4 °F 54% 29.94 in 10.0 mi Calm Calm - N/A   Clear
5:55 AM 53.6 °F 37.4 °F 54% 29.94 in 10.0 mi WSW 3.5 mph - N/A   Clear
6:15 AM 53.6 °F 35.6 °F 51% 29.95 in 10.0 mi Calm Calm - N/A   Clear
6:35 AM 51.8 °F 35.6 °F 54% 29.95 in 10.0 mi Calm Calm - N/A   Clear
6:55 AM 53.6 °F 37.4 °F 54% 29.96 in 10.0 mi Calm Calm - N/A   Clear
7:15 AM 57.2 °F 39.2 °F 51% 29.96 in 10.0 mi Calm Calm - N/A   Clear
7:35 AM 60.8 °F 41.0 °F 48% 29.96 in 10.0 mi Calm Calm - N/A   Clear
7:55 AM 60.8 °F 39.2 °F 45% 29.96 in 10.0 mi NNE 3.5 mph - N/A   Clear
8:15 AM 60.8 °F 41.0 °F 48% 29.97 in 10.0 mi Calm Calm - N/A   Partly Cloudy
8:35 AM 62.6 °F 42.8 °F 48% 29.97 in 10.0 mi Calm Calm - N/A   Clear
8:55 AM 64.4 °F 41.0 °F 42% 29.97 in 10.0 mi Calm Calm - N/A   Clear
9:15 AM 64.4 °F 42.8 °F 45% 29.96 in 10.0 mi NNW 4.6 mph - N/A   Clear
9:35 AM 66.2 °F 42.8 °F 43% 29.97 in 10.0 mi Calm Calm - N/A   Clear
9:55 AM 69.8 °F 42.8 °F 38% 29.97 in 10.0 mi ENE 3.5 mph - N/A   Clear
10:15 AM 71.6 °F 42.8 °F 35% 29.97 in 9.0 mi East 4.6 mph - N/A   Clear
10:35 AM 69.8 °F 42.8 °F 38% 29.98 in 10.0 mi Calm Calm - N/A   Mostly Cloudy
10:55 AM 71.6 °F 42.8 °F 35% 29.99 in 10.0 mi ESE 3.5 mph - N/A   Mostly Cloudy
11:15 AM 71.6 °F 42.8 °F 35% 29.99 in 9.0 mi Calm Calm - N/A   Mostly Cloudy
11:35 AM 71.6 °F 44.6 °F 38% 29.99 in 10.0 mi ENE 4.6 mph - N/A   Overcast
11:55 AM 75.2 °F 44.6 °F 34% 30.00 in 10.0 mi East 3.5 mph - N/A   Mostly Cloudy
12:15 PM 77.0 °F 44.6 °F 32% 29.99 in 10.0 mi Calm Calm - N/A   Mostly Cloudy
12:35 PM 78.8 °F 44.6 °F 30% 29.99 in 10.0 mi Calm Calm - N/A   Partly Cloudy
12:55 PM 78.8 °F 46.4 °F 32% 29.99 in 10.0 mi East 4.6 mph - N/A   Clear
1:15 PM 80.6 °F 46.4 °F 30% 29.99 in 10.0 mi East 3.5 mph - N/A   Clear
1:35 PM 84.2 °F 46.4 °F 27% 29.98 in 9.0 mi SSE 5.8 mph - N/A   Clear
1:55 PM 86.0 °F 44.6 °F 23% 29.97 in 10.0 mi NE 5.8 mph - N/A   Clear
2:15 PM 87.8 °F 42.8 °F 21% 29.97 in 10.0 mi Calm Calm - N/A   Clear
2:35 PM 87.8 °F 42.8 °F 21% 29.96 in 10.0 mi ENE 6.9 mph - N/A   Clear
2:55 PM 87.8 °F 42.8 °F 21% 29.96 in 10.0 mi East 5.8 mph - N/A   Clear
3:15 PM 87.8 °F 42.8 °F 21% 29.95 in 10.0 mi North 4.6 mph - N/A   Clear
3:35 PM 87.8 °F 42.8 °F 21% 29.95 in 10.0 mi NNW 5.8 mph - N/A   Clear
3:55 PM 86.0 °F 42.8 °F 22% 29.95 in 10.0 mi NW 12.7 mph - N/A   Clear
4:15 PM 87.8 °F 42.8 °F 21% 29.95 in 10.0 mi NW 11.5 mph - N/A   Clear
4:35 PM 87.8 °F 44.6 °F 22% 29.95 in 10.0 mi NW 16.1 mph - N/A   Clear
4:55 PM 86.0 °F 44.6 °F 23% 29.95 in 10.0 mi NW 13.8 mph - N/A   Clear
5:15 PM 87.8 °F 44.6 °F 22% 29.95 in 10.0 mi WNW 13.8 mph - N/A   Clear
5:35 PM 87.8 °F 46.4 °F 24% 29.96 in 10.0 mi NNW 9.2 mph - N/A   Clear
5:55 PM 84.2 °F 46.4 °F 27% 29.96 in 10.0 mi NW 10.4 mph - N/A   Clear
6:15 PM 82.4 °F 46.4 °F 28% 29.97 in 10.0 mi NW 9.2 mph - N/A   Clear
6:35 PM 82.4 °F 46.4 °F 28% 29.97 in 10.0 mi WNW 12.7 mph 16.1 mph N/A   Clear
6:55 PM 80.6 °F 44.6 °F 28% 29.98 in 10.0 mi NNE 4.6 mph - N/A   Clear
7:15 PM 78.8 °F 44.6 °F 30% 29.98 in 10.0 mi NNE 3.5 mph - N/A   Clear
7:35 PM 77.0 °F 44.6 °F 32% 30.00 in 10.0 mi NNW 5.8 mph - N/A   Clear
7:55 PM 75.2 °F 44.6 °F 34% 30.01 in 10.0 mi North 5.8 mph - N/A   Clear
8:15 PM 73.4 °F 44.6 °F 36% 30.02 in 10.0 mi Calm Calm - N/A   Clear
8:35 PM 73.4 °F 44.6 °F 36% 30.04 in 10.0 mi NW 6.9 mph - N/A   Clear
8:55 PM 73.4 °F 44.6 °F 36% 30.05 in 10.0 mi NNW 9.2 mph - N/A   Clear
9:15 PM 71.6 °F 42.8 °F 35% 30.06 in 10.0 mi NW 5.8 mph - N/A   Clear
9:35 PM 71.6 °F 42.8 °F 35% 30.07 in 10.0 mi NW 5.8 mph - N/A   Clear
9:55 PM 71.6 °F 44.6 °F 38% 30.07 in 10.0 mi NW 10.4 mph - N/A   Clear
10:15 PM 71.6 °F 44.6 °F 38% 30.07 in 10.0 mi West 13.8 mph - N/A   Clear
10:35 PM 69.8 °F 44.6 °F 40% 30.08 in 10.0 mi NW 10.4 mph - N/A   Clear
10:55 PM 69.8 °F 44.6 °F 40% 30.09 in 10.0 mi NW 9.2 mph - N/A   Clear
11:15 PM 69.8 °F 44.6 °F 40% 30.09 in 10.0 mi WNW 9.2 mph - N/A   Clear
11:35 PM 68.0 °F 44.6 °F 43% 30.09 in 10.0 mi WNW 13.8 mph - N/A   Clear
11:55 PM 68.0 °F 44.6 °F 43% 30.09 in 10.0 mi WNW 16.1 mph - N/A   Clear